Погода в Арге

Россия / Амурская область     51°16′13″N   128°14′29″E
В апреле 2022 года жителям России запретили посещать сайт meteo.paraplan.net по решению Генеральной прокуратуры. Аудитория сайта уменьшилась в 10 раз. Владельцы сайта не видят смысла в поддержке погодного сервера в таких условиях. Сайт будет закрыт в октябре.
темп.,
°C
ветер,
м/с
пор.,
м/с
влажн.,
%
обл.,
%
осадки,
мм/ч
давл.,
гПа
погр.,
м
25 сентября, вс
вс2500:00+9ююв35765 0.0 100669
03:00+8ююв498196 0.0 1005173
06:00+9ююв61376100 0.0 1005262
09:00+13ю71362100 0.0 1004501
12:00+14ююз4558100 0.0 1004737
15:00+15з2362100 0.0 1004803
18:00+13зсз2274100 0.0 100425
21:00+11зсз1181100 0.3 100410
26 сентября, пн
пн2600:00+10зсз3978100 0.2 1004342
03:00+7зюз3888100 0.2 1005268
06:00+6зюз61279100 0.0 1007609
09:00+6з71180100 0.0 1009803
12:00+11зсз711392 0.0 10111476
15:00+13з61035100 0.0 10112815
18:00+10зюз484786 0.0 1012151
21:00+7з49582 0.0 1014166
27 сентября, вт
вт2700:00+5з33630 0.0 101530
03:00+4зюз22625 0.0 101510
06:00+3ю33715 0.0 101542
09:00+7ю585672 0.0 1013313
12:00+11ююв61050100 0.0 1009836
15:00+13ююв71452100 0.0 10031226
18:00+13ююв3563100 0.0 100159
21:00+11юз3872100 0.0 1000111
28 сентября, ср
ср2800:00+10зсз4973100 0.0 1002212
03:00+9зсз51164100 0.0 1004458
06:00+7зсз4967100 0.0 1007332
09:00+7сз695999 0.0 1009762
12:00+11сз674411 0.0 10101260
15:00+12сз67405 0.0 10111552
18:00+8с34541 0.0 101345
21:00+6с22623 0.0 101415
29 сентября, чт
чт2900:00+4с1169100 0.0 101510
03:00+4всв2273100 0.0 101413
06:00+4в2472100 0.0 1013114
09:00+7в3565100 0.0 1011354
12:00+10в5750100 0.0 1007886
15:00+10в3664100 0.4 1004205
18:00+7ссв5889100 1.0 1002256
21:00+6с6994100 3.4 1001482